Content
SEND FEEDBACK

Daily
Averages
Monthly
Summary
Turkmenistan

ASHGABAT, TURKMENISTAN


Home > Asia > Turkmenistan
Elevation: 236 meters     Latitude: 37 58N     Longitude: 058 20E

WEATHER
 
SELECT A DAY
Number of Records: 177,393;   Date Range: 3/15/97 - 8/28/14
 
SHARE

PRINT THIS DATA

[ ← Previous Day ]
WEATHER ALMANAC - 21 JULY, 2013
[ Next Day → ]
[ °F ]   °C
Weather ElementAverageHighLow
Temperature32.5 °C37 °C (4:00 pm)29 °C (6:00 am)
Dewpoint13.9 °C17.2 °C (5:00 am)10 °C (8:00 pm)
Humidity31.2 %45 % (8:00 am)20 % (8:00 pm)
Barometer1006.4 hPa1009.1 hPa (7:00 am)1003 hPa (8:00 pm)
Wind Speed11.9 km/h21.6 km/h (8:30 am)
Wind Gust32.3 km/h (11:30 am)
Weather ElementAverage
Visibility10 km
Wind DirectionWSW (244.2 °)

Weather ElementTotal
Precipitation---
Cooling Degree Days14.7 (Base 18.3)
Growing Degree Days23 (Base 10)
Averaged from 43 records on 21 July, 2013
WEATHER CONDITIONS BREAKOUT
WIND DIRECTION BREAKOUT
WEATHER BY HOUR - 21 JULY, 2013
[ °F ]   °C
Local TimeTemperatureDewpointHumidityBarometerVisibilityWind DirectionWind SpeedGust SpeedPrecipitationEventsConditions
1:00 AM33 °C14 °C31 %1006.1 hPa10 kmWest (260°)10.8 km/hMostly Cloudy
2:00 AM31.1 °C16.1 °C30 %1005.4 hPa9.7 kmNNW (330°)10.8 km/hMostly Cloudy
2:00 AM31 °C16 °C40 %1006.1 hPa10 kmNorth (350°)10.8 km/hMostly Cloudy
2:30 AM31 °C16 °C40 %1006.1 hPa10 kmNorth (350°)14.3 km/hMostly Cloudy
3:00 AM31 °C16 °C40 %1006.1 hPa10 kmNNW (340°)18 km/hMostly Cloudy
3:30 AM31 °C16 °C40 %1007.1 hPa10 kmNorth (350°)14.3 km/hMostly Cloudy
4:00 AM30 °C16 °C43 %1007.1 hPa10 kmNNW (340°)14.3 km/hOvercast
5:00 AM30 °C17.2 °C36 %1006.4 hPa9.7 kmWNW (300°)14.3 km/hMostly Cloudy
5:00 AM30 °C16 °C43 %1008.1 hPa10 kmWNW (300°)14.3 km/hOvercast
6:00 AM29 °C15 °C42 %1008.1 hPa10 kmNW (310°)10.8 km/hOvercast
6:30 AM29 °C15 °C42 %1008.1 hPa10 kmWNW (290°)10.8 km/hOvercast
7:00 AM29 °C15 °C42 %1009.1 hPa10 kmWNW (300°)7.2 km/hOvercast
7:30 AM29 °C15 °C42 %1009.1 hPa10 kmNW (310°)10.8 km/hOvercast
8:00 AM29.4 °C16.7 °C35 %1008.5 hPa9.7 kmNW (320°)10.8 km/hMostly Cloudy
8:00 AM29 °C16 °C45 %1009.1 hPa10 kmNW (320°)10.8 km/hMostly Cloudy
8:30 AM30 °C15 °C40 %1009.1 hPa10 kmNW (320°)21.6 km/hMostly Cloudy
9:00 AM31 °C14 °C35 %1009.1 hPa10 kmNNW (330°)18 km/hScattered Clouds
9:30 AM31 °C14 °C35 %1009.1 hPa10 kmNNW (330°)21.6 km/hScattered Clouds
10:00 AM32 °C14 °C33 %1009.1 hPa10 kmNNW (330°)18 km/hScattered Clouds
10:30 AM31 °C13 °C33 %1008.1 hPa10 kmNorth (350°)14.3 km/hMostly Cloudy
11:00 AM32 °C13 °C31 %1008.1 hPa10 kmNorth (350°)14.3 km/hMostly Cloudy
11:00 AM31.1 °C13.3 °C24 %1007.8 hPa9.7 kmNorth (350°)14.3 km/hScattered Clouds
11:30 AM32 °C13 °C31 %1008.1 hPa10 kmNNW (340°)14.3 km/h32.3 km/hMostly Cloudy
12:00 PM33 °C13 °C29 %1008.1 hPa10 kmNW (320°)7.2 km/hMostly Cloudy
12:30 PM33 °C13 °C29 %1007.1 hPa10 kmNNW (330°)10.8 km/hMostly Cloudy
1:00 PM33 °C13 °C29 %1007.1 hPa10 kmNW (320°)10.8 km/hMostly Cloudy
2:00 PM35 °C13 °C26 %1007.1 hPa10 kmNW (310°)10.8 km/hScattered Clouds
2:00 PM33.3 °C15 °C23 %1005.8 hPa9.7 kmNW (320°)14.3 km/hScattered Clouds
3:00 PM36 °C13 °C25 %1006.1 hPa10 kmNE (40°)10.8 km/hScattered Clouds
4:00 PM37 °C13 °C24 %1005.1 hPa10 kmNorth (10°)10.8 km/hScattered Clouds
4:30 PM37 °C12 °C22 %1005.1 hPa10 kmNNE (20°)7.2 km/hScattered Clouds
5:00 PM37 °C12 °C22 %1005.1 hPa10 kmNE (40°)7.2 km/hMostly Cloudy
5:00 PM35.6 °C15.6 °C21 %1004.4 hPa9.7 kmNE (50°)7.2 km/hScattered Clouds
5:30 PM37 °C12 °C22 %1004.1 hPa10 kmVariable3.5 km/hMostly Cloudy
6:00 PM37 °C12 °C22 %1004.1 hPa10 kmSE (140°)10.8 km/hMostly Cloudy
6:30 PM37 °C12 °C22 %1004.1 hPa10 kmSouth (170°)7.2 km/hMostly Cloudy
7:00 PM36 °C12 °C23 %1004.1 hPa10 kmSSE (160°)10.8 km/hMostly Cloudy
8:00 PM35 °C10 °C22 %1004.1 hPa10 kmESE (110°)10.8 km/hMostly Cloudy
8:00 PM35 °C14.4 °C20 %1003 hPa9.7 kmESE (110°)14.3 km/hPartly Cloudy
9:00 PM33 °C12 °C28 %1004.1 hPa10 kmESE (110°)10.8 km/hScattered Clouds
10:00 PM32 °C11 °C27 %1004.1 hPa10 kmESE (110°)10.8 km/hPartly Cloudy
11:00 PM31.1 °C13.3 °C24 %1003.4 hPa9.7 kmSouth (180°)7.2 km/h
11:00 PM32 °C11 °C27 %1004.1 hPa10 kmSouth (180°)7.2 km/hClear
Hourly data recorded from UTAA, located 0 kilometers away from Ashgabat, Turkmenistan







STORIES FROM OUR PARTNERS